VK2XSE Weather Reports


Display with metric or nautical units.
time (UTC)temp
F
wind
direction
speed
MPH
gust
MPH
rain 1hr
in
rain 24hr
in
rain mn
in
humidity
%
barometer
mb
20260503213518 52 0.0 2.0 0.00 0.88 0.06 94 1016.2
20260503212518 52 0.0 1.0 0.00 0.89 0.06 94 1016.1
20260503211518 52 0.0 0.0 0.00 0.89 0.06 93 1015.9
20260503210518 52 0.0 2.0 0.00 0.89 0.06 93 1015.9
20260503205518 52 0.0 2.0 0.00 0.89 0.06 93 1015.9
20260503204518 52 0.0 0.0 0.00 0.89 0.06 93 1015.8
20260503203518 52 0.0 0.0 0.00 0.89 0.06 93 1015.6
20260503202518 52 0.0 0.0 0.00 0.89 0.06 93 1015.6
20260503201518 52 0.0 2.0 0.00 0.89 0.06 93 1015.4
20260503200518 53 0.0 2.0 0.00 0.89 0.06 93 1015.3
20260503195518 53 0.0 0.0 0.00 0.89 0.06 93 1015.3
20260503194518 53 0.0 0.0 0.00 0.89 0.06 93 1015.4
20260503193518 53 0.0 1.0 0.00 0.89 0.06 93 1015.4
20260503192518 53 0.0 2.0 0.00 0.89 0.06 93 1015.2
20260503191517 54 0.0 0.0 0.00 0.89 0.06 93 1015.2
20260503190518 54 0.0 0.0 0.00 0.89 0.06 93 1015.2
20260503185518 54 0.0 0.0 0.00 0.89 0.06 93 1015.1
20260503184517 54 0.0 0.0 0.00 0.89 0.06 93 1014.9
20260503183517 54 0.0 0.0 0.00 0.89 0.06 93 1015.0
20260503182518 54 0.0 1.0 0.00 0.89 0.06 93 1014.9
20260503181517 54 0.0 1.0 0.00 0.89 0.06 93 1014.8
20260503180517 55 0.0 2.0 0.00 0.89 0.06 93 1015.1
20260503175517 55 0.0 2.0 0.00 0.89 0.06 93 1015.2
20260503174517 55 0.0 1.0 0.00 0.89 0.06 93 1015.2
20260503173517 55 0.0 2.0 0.00 0.89 0.06 93 1015.3
20260503172517 55 0.0 2.0 0.00 0.89 0.06 93 1015.2
20260503171517 55 0.0 2.0 0.00 0.89 0.06 93 1015.1
20260503170517 55 0.0 2.0 0.00 0.89 0.06 93 1015.1
20260503150517 56 0.0 2.0 0.06 0.88 0.06 93 1015.7
20260503130516 57 0.0 2.0 0.02 0.78 0.78 92 1015.7
20260503110518 62 315 2.0 4.0 0.31 0.69 0.69 92 1015.7
20260503081518 64 338 1.0 2.0 0.17 0.32 0.32 92 1014.5
20260503080518 64 338 1.0 3.0 0.28 0.32 0.32 92 1014.5
20260503072518 63 293 3.0 11.0 0.20 0.21 0.21 90 1015.2
20260503071518 63 270 4.0 11.0 0.14 0.16 0.16 88 1015.1
20260503070518 64 270 6.0 10.0 0.03 0.05 0.05 84 1015.1
20260503054517 71 338 1.0 3.0 0.00 0.02 0.02 69 1014.1
20260503053517 71 338 2.0 4.0 0.00 0.02 0.02 69 1014.0
20260503052517 71 338 2.0 4.0 0.00 0.02 0.02 69 1013.9
20260503051517 71 23 2.0 7.0 0.00 0.02 0.02 69 1013.6
20260503050517 71 23 1.0 4.0 0.00 0.02 0.02 69 1013.4
20260503045517 71 0 2.0 5.0 0.00 0.02 0.02 69 1013.3
20260503044517 71 0 1.0 3.0 0.00 0.02 0.02 69 1013.4
20260503043517 71 315 1.0 2.0 0.00 0.02 0.02 69 1013.6
20260503042517 71 315 1.0 4.0 0.00 0.02 0.02 69 1014.0
20260503041517 71 0 1.0 2.0 0.00 0.02 0.02 70 1014.1
20260503040517 72 0 1.0 2.0 0.00 0.02 0.02 70 1014.1
20260503035517 72 0 1.0 3.0 0.00 0.02 0.02 67 1014.2
20260503034517 73 338 2.0 4.0 0.00 0.02 0.02 65 1014.4
20260503033517 73 338 2.0 6.0 0.00 0.02 0.02 64 1014.5
20260503032517 74 0 3.0 8.0 0.00 0.02 0.02 64 1014.6
20260503031517 74 0 3.0 7.0 0.00 0.02 0.02 64 1014.7
20260503030517 74 315 3.0 11.0 0.00 0.02 0.02 65 1014.7
20260503025517 74 338 4.0 8.0 0.00 0.02 0.02 62 1014.8
20260503024517 74 338 3.0 9.0 0.00 0.02 0.02 63 1014.9
20260503023517 74 338 3.0 9.0 0.00 0.02 0.02 63 1014.9
20260503022517 75 338 4.0 9.0 0.00 0.02 0.02 60 1015.1
20260503021517 76 315 3.0 5.0 0.00 0.02 0.02 57 1015.0
20260503020517 76 315 4.0 10.0 0.00 0.02 0.02 58 1015.1
20260503015517 76 338 4.0 8.0 0.00 0.02 0.02 58 1015.2
20260503014517 76 0 3.0 9.0 0.00 0.02 0.02 58 1015.4
20260503013517 75 0 4.0 8.0 0.00 0.02 0.02 59 1015.4
20260503012517 75 0 4.0 12.0 0.00 0.02 0.02 61 1015.5
20260503011517 74 338 3.0 8.0 0.00 0.02 0.02 62 1015.3
20260503010517 73 293 4.0 9.0 0.00 0.02 0.02 63 1015.4
20260503005517 73 338 3.0 7.0 0.00 0.02 0.02 64 1015.6
20260503004517 73 315 3.0 8.0 0.00 0.02 0.02 64 1015.6
20260503003517 72 338 3.0 9.0 0.00 0.02 0.02 66 1015.6
20260503002517 70 338 2.0 5.0 0.00 0.02 0.02 68 1015.7
20260503001517 70 315 2.0 4.0 0.00 0.02 0.02 68 1015.9
20260503000517 70 23 2.0 5.0 0.00 0.02 0.02 68 1015.9
20260502235517 69 23 2.0 5.0 0.00 0.02 0.02 69 1015.9
20260502234517 69 315 2.0 4.0 0.00 0.02 0.02 69 1016.1
20260502233516 69 338 1.0 5.0 0.00 0.02 0.02 70 1016.3
20260502232516 69 23 1.0 4.0 0.00 0.02 0.02 71 1016.4
20260502231516 68 23 1.0 3.0 0.00 0.02 0.02 72 1016.5
20260502230516 68 23 1.0 4.0 0.00 0.02 0.02 74 1016.4
20260502225516 67 0 1.0 2.0 0.00 0.02 0.02 75 1016.4
20260502224516 67 0.0 2.0 0.01 0.02 0.02 77 1016.5
20260502223517 66 23 1.0 2.0 0.01 0.02 0.02 78 1016.5
20260502222516 65 0.0 2.0 0.02 0.02 0.02 78 1016.5
20260502221518 65 0.0 1.0 0.02 0.02 0.02 78 1016.5
20260502220518 66 0.0 2.0 0.02 0.02 0.02 77 1016.5
20260502215518 66 0 1.0 3.0 0.02 0.02 0.02 77 1016.5
20260502214518 66 0.0 2.0 0.01 0.01 0.01 77 1016.3